AirNav   Pilot Hours Calculator
 
 667 users online  

42VA Virginia Beach Airport
Virginia Beach, Virginia, USA

GOING TO VIRGINIA BEACH?


FAA INFORMATION EFFECTIVE 09 SEPTEMBER 2021

Location

FAA Identifier: 42VA
Lat/Long: 36-40-44.0550N 076-01-57.9950W
36-40.734250N 076-01.966583W
36.6789042,-76.0327764
(estimated)
Elevation: 15 ft. / 5 m (estimated)
Variation: 10W (1990)
From city: 4 miles SE of VIRGINIA BEACH, VA
Time zone: UTC -4 (UTC -5 during Standard Time)
Zip code: 23457

Airport Operations

Airport use: Private use. Permission required prior to landing
Activation date: 04/1993
Control tower: no
ARTCC: WASHINGTON CENTER
FSS: LEESBURG FLIGHT SERVICE STATION
Attendance: UNATNDD
Wind indicator: yes
Segmented circle: no

Airport Communications

WX ASOS at NTU (9 nm N): PHONE DSN 433-3619 or 757-433-3619
WX AWOS-3 at CPK (14 nm W): 123.675 (757-204-4290)
WX ASOS at ORF (15 nm NW): PHONE 757-460-9348
WX AWOS-3 at ONX (17 nm S): 119.775 (252-453-8939)

Nearby radio navigation aids

VOR radial/distance  VOR name  Freq  Var
ORFr155/15.1NORFOLK VORTAC116.9007W
ECGr022/26.2ELIZABETH CITY VOR/DME112.5007W

 
NDB name  Hdg/Dist  Freq  Var  ID
INGLE142/14.332909WOR --- .-.
WOODVILLE037/28.025410WLLW .-.. .-.. .--

Airport Services

Runway Information

Runway 11/29

Dimensions: 4845 x 190 ft. / 1477 x 58 m
Surface: turf, in good condition
RUNWAY 11  RUNWAY 29
Latitude: 36-40.824167N36-40.644333N
Longitude: 076-02.449500W076-01.483667W
Elevation: 10.0 ft.9.0 ft.
Traffic pattern: leftleft

Airport Ownership and Management from official FAA records

Ownership: Privately-owned
Owner: VIRGINIA BEACH ARPT, LLC
4455 SOUTH BLVD
VIRGINIA BEACH, VA 23452
Phone 757-490-3157
Manager: GERALD YAGEN
4455 SOUTH BLVD
VIRGINIA BEACH, VA 23452
Phone 757-490-3157
EXTENSION 500.

Airport Operational Statistics

Aircraft based on the field: 54
Single engine airplanes: 50
Multi engine airplanes: 4
    

Additional Remarks

AWOS - PHONE 757-204-2683, FREQUENCY 119.925
FOR CD CTC WASHINGTON ARTCC AT 703-771-3587.

Instrument Procedures

There are no published instrument procedures at 42VA.

Some nearby airports with instrument procedures:

KNTU - Oceana Naval Air Station (Apollo Soucek Field) (9 nm N)
KCPK - Chesapeake Regional Airport (14 nm W)
KORF - Norfolk International Airport (15 nm NW)
KONX - Currituck County Regional Airport (17 nm S)
KNGU - Norfolk Naval Station (Chambers Field) (20 nm NW)
 
Loc | Ops | Rwys | IFR | FBO | Links
Com | Nav | Svcs | Stats | Notes
Area around 42VA (Virginia Beach Airport)
 
Road maps at: MapQuest Bing Google
 
Aerial photo
WARNING: Photo may not be current or correct
Aerial photo of 42VA (Virginia Beach Airport)
Photo by Jerry Yagen
Photo taken 10-Nov-2012
looking east.

Do you have a better or more recent aerial photo of Virginia Beach Airport that you would like to share? If so, please send us your photo.

 
Sectional chart

 
Airport distance calculator
Flying to Virginia Beach Airport? Find the distance to fly.

From to 42VA

Sunrise and sunset
Times for 17-Sep-2021
 Local
(UTC-4)
 Zulu
(UTC)
Morning civil twilight06:2310:23
Sunrise06:4910:49
Sunset19:0823:08
Evening civil twilight19:3423:34

Current date and time
Zulu (UTC)  17-Sep-2021 11:22:37
Local (UTC-4)  17-Sep-2021 07:22:37
 
METAR
KNFE 
5nm W 
171056Z AUTO 02008KT 10SM BKN011 OVC018 24/22 A3007 RMK AO2 SLP184 T02440222
KNTU 
8nm N 
171056Z 03013KT 10SM BKN008 OVC016 26/22 A3006 RMK AO2 SLP182 T02560222
KCPK 
14nm W 
171055Z AUTO 02005KT 7SM OVC012 24/23 A3007 RMK AO2 LTG DSNT SE T02370225
KORF 
16nm NW 
171103Z 03015KT 10SM BKN012 OVC019 24/23 A3008 RMK AO2 T02390228
KONX 
17nm S 
171055Z AUTO 01011KT 10SM OVC010 24/24 A3005 RMK AO2 T02420242
KNGU 
18nm NW 
171059Z 03009G19KT 9SM SCT010 BKN016 OVC200 25/22 A3009 RMK AO2 SLP190 T02500222
TAF
KNTU 
8nm N 
1708/1807 04012G20KT OVC006 QNH3001INS TEMPO 1708/1713 9000 -SHRA FM171300 04014G24KT 6000 -SHRA VCTS BKN010CB OVC020 520009 QNH3003INS TEMPO 1714/1720 VRB20G30KT 3200 TSRA BR BKN008CB OVC010 BECMG 1720/1722 03014G22KT 9999 OVC010 QNH2997INS BECMG 1803/1805 02012KT 9999 BKN010 OVC020 QNH3001INS T25/1707Z T23/1803Z AMD 0855 FN20011
KORF 
16nm NW 
170541Z 1706/1806 05009KT P6SM VCSH BKN012 TEMPO 1706/1710 BKN009 FM171600 04012G19KT P6SM BKN015 FM172300 03008KT P6SM BKN025
KNGU 
18nm NW 
1709/1807 04009KT 9999 SCT010 OVC020 QNH2998INS TEMPO 1709/1712 04015KT 4800 RA SCT005 BKN010 OVC020 FM171400 01013G20KT 8000 -SHRA BR VCTS FEW020CB BKN035 OVC100 QNH3001INS TEMPO 1714/1720 VRB15G25KT 3200 TSRA BR SCT007CB BKN025 OVC040 FM172100 02012G22KT 9999 VCSH SCT015 BKN030 BKN250 QNH3002INS BECMG 1800/1802 03012KT 6000 SHRA SCT020 BKN030 BKN040 QNH2998INS BECMG 1803/1805 02011KT 9999 BKN010 OVC020 QNH2999INS T26/1718Z T22/1806Z AMD 0904 FN00062
NOTAMs
Click for the latest NOTAMs
NOTAMs are issued by the DoD/FAA and will open in a separate window not controlled by AirNav.

 

 
 

Would you like to see your business listed on this page?

 If your business provides an interesting product or service to pilots, flight crews, aircraft, or users of the Virginia Beach Airport, you should consider listing it here.  To start the listing process, click on the button below
 
Add a business
 

Other Pages about Virginia Beach Airport

www.vbairport.com
Military Aviation Museum
www.fighterfactory.com
 
Update a link
 
Copyright © AirNav, LLC. All rights reserved. Privacy Policy  Contact